Date,TemperatureHighF,TemperatureAvgF,TemperatureLowF,DewpointHighF,DewpointAvgF,DewpointLowF,HumidityHigh,HumidityAvg,HumidityLow,PressureMaxIn,PressureMinIn,WindSpeedMaxMPH,WindSpeedAvgMPH,GustSpeedMaxMPH,PrecipitationSumIn
2013-4-1,62.4,47.6,36.0,47.2,37.2,12.0,96,70,34,29.78,29.50,15,5,24,0.13
2013-4-2,40.1,34.7,29.6,17.2,13.0,9.3,50,41,30,29.94,29.78,22,7,30,0.00
2013-4-3,45.6,37.1,30.1,19.6,13.1,8.1,61,39,22,30.15,29.92,17,8,26,0.00
2013-4-4,57.0,42.4,29.5,26.8,16.6,8.4,57,38,15,30.30,30.05,13,4,19,0.00
2013-4-5,61.1,46.7,37.6,30.9,27.0,21.2,71,50,23,30.05,29.62,14,5,21,0.00
2013-4-6,46.3,39.3,32.4,26.3,10.3,0.6,57,33,15,30.34,29.87,16,4,25,0.00
2013-4-7,52.7,43.2,32.5,41.1,27.7,12.5,81,56,33,30.33,30.01,17,4,32,0.00
2013-4-8,65.1,52.7,45.5,43.4,40.9,35.9,89,67,35,30.10,29.95,12,3,18,0.00
2013-4-9,71.5,55.2,47.1,52.9,44.4,39.3,92,70,39,30.09,29.85,11,4,21,0.09
2013-4-10,60.9,51.2,46.4,48.5,44.7,41.9,92,79,59,30.02,29.86,10,2,15,0.18
2013-4-11,51.0,46.7,43.8,46.9,41.4,34.9,96,83,67,30.14,29.82,9,2,16,0.05
2013-4-12,44.1,39.7,37.7,38.1,35.6,30.8,96,85,69,30.17,29.78,24,6,27,0.43
2013-4-13,52.0,43.1,36.9,41.0,37.8,33.8,95,82,55,29.92,29.75,9,2,14,0.00
2013-4-14,52.1,47.0,42.2,41.0,32.9,26.8,81,60,38,30.21,29.91,14,3,20,0.00
2013-4-15,53.2,45.2,35.6,41.0,33.8,29.1,77,65,47,30.39,30.21,14,3,16,0.00
2013-4-16,64.0,52.4,40.5,51.0,42.1,36.4,89,70,47,30.41,30.06,19,4,24,0.00
2013-4-17,67.2,59.4,52.0,53.1,38.0,27.8,85,49,24,30.33,30.05,12,4,18,0.00
2013-4-18,63.9,53.5,46.2,44.3,35.5,28.5,73,52,33,30.43,30.15,14,4,21,0.00
2013-4-19,74.5,63.4,52.8,63.4,58.0,44.7,100,84,61,30.15,29.66,18,6,30,0.00
2013-4-20,66.6,55.2,45.5,63.2,41.9,23.7,95,65,36,30.19,29.60,17,5,28,0.34
2013-4-21,51.8,43.0,35.7,32.4,23.6,19.0,65,47,29,30.68,30.21,14,4,20,0.00
2013-4-22,50.0,42.6,35.5,36.6,31.2,25.9,78,65,40,30.77,30.59,22,4,22,0.00
2013-4-23,42.7,41.4,39.2,41.0,38.2,32.1,96,89,71,30.59,30.12,14,3,18,0.07
2013-4-24,73.8,54.3,41.5,52.4,45.5,39.9,97,75,42,30.11,29.79,12,4,19,0.01
2013-4-25,65.2,56.8,49.1,53.0,38.8,23.6,92,57,21,30.26,29.83,12,3,21,0.02
2013-4-26,54.5,49.9,45.6,42.3,36.9,29.3,87,62,48,30.43,30.26,12,3,19,0.00
2013-4-27,62.9,52.9,41.1,42.6,37.1,29.0,93,59,31,30.42,30.29,11,2,15,0.00
2013-4-28,67.2,55.8,44.9,43.4,36.7,28.0,78,51,31,30.34,30.22,14,4,20,0.00
2013-4-29,69.9,57.7,48.7,47.1,38.1,13.7,82,53,16,30.28,30.19,15,3,18,0.00
2013-4-30,66.1,57.0,49.3,38.8,29.8,12.5,63,39,13,30.36,30.25,12,2,20,0.00